FHA12E EPGD-EDDH

Flight info

Callsign FHA12E
Flight time N/A
Altitude 34000
Route DEXIR3H DEXIR T671 AGODU DCT BODLA L733 TABOK DCT RADEL DCT PODUS L619 BUMIL/N0367F240 M748 RARUP RARUP6A
Aircraft A320/M-SDE3FGHIRWY/LB1

Departure

Time N/A
Airport Gdańsk Lech Wałęsa Airport (EPGD)

Arrival

Time 2026-04-30 18:06
Airport Hamburg Helmut Schmidt Airport (EDDH)
Time Latitude Longitude Altitude Speed Heading
2026-04-30 17:39 52.99435 12.07844 28795 ft 391 kts 293°
2026-04-30 17:41 53.05918 11.74331 26717 ft 381 kts 292°
2026-04-30 17:42 53.07500 11.66014 26061 ft 378 kts 292°
2026-04-30 17:42 53.09852 11.53595 24981 ft 373 kts 292°
2026-04-30 17:43 53.11399 11.45381 24119 ft 372 kts 292°
2026-04-30 17:44 53.13674 11.33203 22513 ft 363 kts 292°
2026-04-30 17:44 53.15902 11.21216 21226 ft 359 kts 291°
2026-04-30 17:46 53.19502 11.01738 19410 ft 352 kts 291°
2026-04-30 17:47 53.22333 10.86265 17900 ft 347 kts 291°
2026-04-30 17:48 53.25108 10.70945 16351 ft 342 kts 290°
2026-04-30 17:48 53.27140 10.59674 15427 ft 337 kts 289°
2026-04-30 17:49 53.29801 10.44825 14464 ft 332 kts 289°
2026-04-30 17:50 53.32382 10.30239 13415 ft 311 kts 289°
2026-04-30 17:51 53.34120 10.20352 12639 ft 288 kts 288°
2026-04-30 17:52 53.35788 10.10798 11657 ft 283 kts 288°
2026-04-30 17:53 53.38492 9.95295 9811 ft 275 kts 288°
2026-04-30 17:54 53.40475 9.83018 8272 ft 267 kts 270°
2026-04-30 17:55 53.37137 9.72294 7278 ft 261 kts 234°
2026-04-30 17:56 53.33194 9.62297 6289 ft 255 kts 234°
2026-04-30 17:57 53.32288 9.54186 5518 ft 250 kts 304°
2026-04-30 17:58 53.36702 9.52275 4996 ft 233 kts 22°
2026-04-30 17:59 53.42280 9.57177 5007 ft 227 kts 52°
2026-04-30 18:00 53.46342 9.65290 4796 ft 226 kts 52°
2026-04-30 18:00 53.49361 9.71320 3906 ft 224 kts 52°
2026-04-30 18:01 53.51349 9.75298 3316 ft 223 kts 52°
2026-04-30 18:02 53.54328 9.81273 2409 ft 221 kts 52°
2026-04-30 18:02 53.57031 9.86701 1614 ft 177 kts 52°
2026-04-30 18:03 53.59030 9.90729 977 ft 134 kts 52°
2026-04-30 18:04 53.60806 9.94298 466 ft 132 kts 51°
2026-04-30 18:05 53.62879 9.98506 44 ft 57 kts 50°
2026-04-30 18:06 53.63090 9.99169 47 ft 0 kts 95°
2026-04-30 18:07 53.63157 9.99536 46 ft 11 kts 51°
2026-04-30 18:08 53.63221 9.99669 48 ft 7 kts 49°
2026-04-30 18:09 53.63263 9.99934 48 ft 0 kts 140°